Location: Antioch
(38.0049°N, 121.8058°W)
Time: 01:01:08
(UTC+00:00)

Cosmos 2344 - Pass Details

Date: 11 February 2026
Orbit: 1195 x 3047 km, 63.3° (Epoch: 10 March)

Event Time Altitude Azimuth Distance (km) Brightness Sun altitude
Exits shadow 12:29:47 22° 333° (NNW) 2,715 5.1 -30.4°
Maximum altitude 12:35:52 75° 56° (NE) 1,718 4.2 -29.2°
Drops below altitude 10° 12:47:37 10° 142° (SE) 4,708 6.9 -26.9°
Sets 12:51:41 0° 144° (SE) 5,972 7.5 -26.1°
